Regional Weather Roundup
Issued by NWS

Home | Current Version | Previous Version | Graphics & Text | Print | Product List | Glossary On
Versions: 1 2 3 4 5 6 7 8 9 10 11 12 13 14 15 16 17 18 19 20 21 22 23 24 25 26 27 28 29 30 31 32 33 34 35 36 37 38 39 40 41 42 43 44 45 46 47 48 49 50
000
ASUS43 KMKX 221111
RWRWI

WISCONSIN REGIONAL WEATHER ROUNDUP
NATIONAL WEATHER SERVICE MILWAUKEE/SULLIVAN WI
600 AM CDT TUE JUL 22 2014

NOTE: "FAIR" INDICATES FEW OR NO CLOUDS BELOW 12,000 FEET WITH NO
SIGNIFICANT WEATHER AND/OR OBSTRUCTIONS TO VISIBILITY.

WIZ001-002-006>008-014>016-023>028-221200-
NORTHWEST WISCONSIN

CITY           SKY/WX    TMP DP  RH WIND       PRES   REMARKS
SUPERIOR ARPT  PTCLDY    69  66  90 W10G16    29.76R
ASHLAND        CLOUDY    74  70  87 SW8       29.72R
HAYWARD        CLOUDY    77  73  87 SW13      29.78R
SIREN          CLEAR     72  64  77 W12G18    29.81R
RICE LAKE      NOT AVBL
LADYSMITH      NOT AVBL
EAU CLAIRE     PTCLDY    78  73  84 SW10      29.82S HX  81
MENOMONIE      NOT AVBL
NEW RICHMOND   MOCLDY    78  75  92 SW9       29.84R HX  80
OSCEOLA        MOCLDY    76  69  80 W7        29.85R
$$

WIZ003>005-009-010-017-018-221200-
NORTH CENTRAL WISCONSIN

CITY           SKY/WX    TMP DP  RH WIND       PRES   REMARKS
WOODRUFF       CLOUDY    72  68  88 S7        29.84F
RHINELANDER    CLOUDY    72  68  87 SW10      29.87F
EAGLE RIVER    NOT AVBL
LAND O LAKES   TSTM      71  67  87 SE5       29.84F
PHILLIPS       NOT AVBL
TOMAHAWK       NOT AVBL
MEDFORD        NOT AVBL
MERRILL        NOT AVBL
$$

WIZ029-030-035-036-043>047-221200-
CENTRAL WISCONSIN

CITY           SKY/WX    TMP DP  RH WIND       PRES   REMARKS
WAUSAU         CLOUDY    73  68  84 S9        29.87S
MOSINEE        PTCLDY    72  70  94 S9        29.89F
MARSHFIELD     MOCLDY    73  68  84 SW10      29.88S
STEVENS POINT  MOCLDY    70  67  88 S7        29.90F
WAUPACA        NOT AVBL
WAUTOMA        MOCLDY    74  69  84 S7        29.92S
WISC RAPIDS    MOCLDY    75  68  78 S10       29.90S
CAMP DOUGLAS   MOCLDY    74  70  87 S5        29.89S
$$

WIZ011>013-019>022-031-037>040-048>050-221200-
NORTHEAST WISCONSIN

CITY           SKY/WX    TMP DP  RH WIND       PRES   REMARKS
ANTIGO         CLOUDY    69  67  96 S9        29.90F
STURGEON BAY   MOCLDY    66  63  88 S15       29.92F
GREEN BAY      PTCLDY    75  68  78 S13G22    29.91F HAZE
MANITOWOC      PTCLDY    67  64  90 S8        29.95F FOG
APPLETON       NOT AVBL
CLINTONVILLE   NOT AVBL
OSHKOSH        PTCLDY    73  68  84 S14G23    29.92F HAZE
$$

WIZ032>034-041-042-053>061-221200-
SOUTHWEST WISCONSIN

CITY           SKY/WX    TMP DP  RH WIND       PRES   REMARKS
LA CROSSE      CLEAR     78  69  73 S17       29.85F HX  80
SPARTA         NOT AVBL
VIROQUA        FAIR      73  68  84 S10       29.92S
BOSCOBEL       MOCLDY    77  67  71 SW7       29.92S
PRAIRIE DU CHI MOCLDY    77  65  67 SE5       29.91F
PLATTEVILLE    FAIR      72  68  87 S12       29.96F
$$

WIZ056-057-062-063-064-067-068-221200-
SOUTH CENTRAL WISCONSIN

CITY           SKY/WX    TMP DP  RH WIND       PRES   REMARKS
BARABOO/DELLS  CLOUDY    73  66  76 S13       29.91F
LONE ROCK      CLOUDY    79  68  69 VRB6      29.93F HX  81
WATERTOWN      PTCLDY    70  67  90 S7        29.97F
MADISON        MOCLDY    74  67  78 S17G24    29.96F
MIDDLETON      FAIR      74  67  78 SW9G17    29.96S
MONROE         PTCLDY    70  66  88 S15       29.99S
JANESVILLE     PTCLDY    73  64  73 S9        29.99F
$$

WIZ051-052-058>065-066-070>072-221200-
SOUTHEAST WISCONSIN

CITY           SKY/WX    TMP DP  RH WIND       PRES   REMARKS
MILWAUKEE      PTCLDY    71  65  81 SW13      30.01S
WAUKESHA       PTCLDY    75  64  69 S12       30.05R
MILWAUKEE/TIMM PTCLDY    70  63  78 S9        30.01F
RACINE         CLEAR     70  65  84 S6        30.04S
BURLINGTON     CLEAR     68  64  88 S8        30.02S
KENOSHA        CLEAR     70  65  84 S8        30.03S
FOND DU LAC    PTCLDY    73  66  78 S16G23    29.94F
SHEBOYGAN      CLEAR     69  66  90 S9        29.97F
WEST BEND      PTCLDY    72  63  73 S8        29.98F
JUNEAU         PTCLDY    70  52  53 S12       29.98S
$$

LSZ147-162-221200-
LAKE SUPERIOR

STATION/POSITION TIME  TEMP    WIND        PRES    WAVE
                       AIR SEA DIR/SP/G            HT/PER
                 (UTC) (F)     (DEG/KT/KT) (MB)    (FT/S)
W MID LAKE BUOY  1050   51 39  150/ 19/ 21 1004.6F   2/ 4
PORT WING        1020   69     220/  7/ 16 1006.4R
SAXON HARBOR     1040          190/  7/ 12 1005.8S
$$

LMZ867-665-643>646-221200-
LAKE MICHIGAN

STATION/POSITION TIME  TEMP    WIND        PRES    WAVE
                       AIR SEA DIR/SP/G            HT/PER
                 (UTC) (F)     (DEG/KT/KT) (MB)    (FT/S)
N MID LAKE BUOY  1050   62 56  190/ 16/ 17 1013.2F   3/ 4
NORTHPORT PIER   1000   64     140/  7/  9 1013.2F
KEWAUNEE LAKESHO 1000   55     180/ 10/ 12 1014.9F
SHEBOYGAN LAKESH 1100   66     180/ 21/ 22 1014.6F
PORT WASHINGTON  1000   59     190/  6/  9 1016.6R
ATWATER BUOY     1100   56     170/  6     1017.0S
MILWAUKEE LAKESH 1000   67     180/  7/  8   N/A
S MID LAKE BUOY  1050   70 69  190/ 10/ 12 1017.4R   1/ 3
KENOSHA   LAKESH 1100   63     170/  9/ 11   N/A
$$

TC  - TEMPERATURE IN CELSIUS
VSB - VISIBILITY IN STATUTE MILES
WCI - WIND CHILL INDEX
HX  - HEAT INDEX




USA.gov is the U.S. government's official web portal to all federal, state and local government web resources and services.